Home > Weather > Brønnøysund > Past weeks

Flag for Norway Past Weather in Brønnøysund, Norway — Yesterday and Last 2 Weeks

Now
57 °F

Mostly cloudy.


Feels Like: 56 °F
Forecast: 56 / 64 °F
Wind: 6 mph from Southwest

Location: Bronnoysund / Bronnoy

Current Time: Jul 23, 2016 at 9:19:52 PM

Latest Report: Jul 23, 2016 at 8:50 PM


Visibility: N/A

Pressure: 30.15 "Hg

Humidity: 94%

Dew Point: 55 °F

Location of BrønnøysundLocation

Past Weather in Brønnøysund — Graph

°F

Brønnøysund Temperature Yesterday

Maximum temperature yesterday: 75 °F (at 8:50 AM)
Minimum temperature yesterday: 55 °F (at 8:50 PM)
Average temperature yesterday: 65 °F

High & Low Weather Summary for the Past Weeks

 TemperatureHumidityPressure
High86 °F (Jul 21, 3:50 PM)100% (Jul 10, 2:50 AM)30.15 "Hg (Jul 10, 2:50 AM)
Low46 °F (Jul 16, 4:50 AM)33% (Jul 21, 3:50 PM)29.42 "Hg (Jul 11, 4:20 PM)
Average57 °F80%29.84 "Hg
* Reported Jul 8 7:20 PM — Jul 23 7:50 PM, Brønnøysund, Weather by CustomWeather, © 2016

Note: Actual official high and low records may vary slightly from our data, if they occured in-between our weather recording intervals... More about our weather records

Advertising

Brønnøysund Weather History for the Previous 24 Hours

Scroll right to see more
 ConditionsComfort  
Time TempWeatherWind HumidityBarometerVisibility
7:50 PM
Sat, Jul 23
57 °FLow clouds.7 mph94%30.15 "Hg4 mi
7:20 PM57 °FFog.7 mph94%30.15 "Hg5 mi
6:50 PM57 °FMore clouds than sun.6 mph94%30.15 "Hg6 mi
6:20 PM59 °FFog.7 mph88%30.12 "Hg5 mi
5:50 PM59 °FFog.8 mph94%30.12 "HgN/A
5:20 PM59 °FMore clouds than sun.9 mph94%30.12 "HgN/A
4:50 PM61 °FPartly sunny.8 mph88%30.12 "HgN/A
4:20 PM61 °FFog.8 mph88%30.12 "HgN/A
3:50 PM59 °FPartly sunny.8 mph94%30.12 "HgN/A
3:20 PM59 °FPartly sunny.10 mph94%30.12 "HgN/A
2:50 PM61 °FPartly sunny.9 mph88%30.12 "HgN/A
1:50 PM59 °FPartly sunny.12 mph94%30.12 "HgN/A
1:20 PM61 °FPartly sunny.12 mph88%30.12 "HgN/A
12:20 PM63 °FBroken clouds.12 mph88%30.09 "HgN/A
11:50 AM61 °FBroken clouds.9 mph88%30.09 "HgN/A
11:20 AM61 °FBroken clouds.8 mph88%30.09 "HgN/A
10:50 AM59 °FBroken clouds.6 mph94%30.09 "HgN/A
10:20 AM59 °FRain. Fog.9 mph94%30.09 "HgN/A
9:50 AM59 °FBroken clouds.7 mph94%30.09 "HgN/A
9:20 AM59 °FBroken clouds.6 mph94%30.09 "HgN/A
8:50 AM57 °FBroken clouds.3 mph100%30.07 "HgN/A
8:20 AM57 °FLight rain. Broken clouds.2 mph100%30.07 "HgN/A
7:50 AM55 °FLight rain. Fog.5 mph100%30.07 "HgN/A
7:20 AM55 °FFog.3 mph94%30.07 "HgN/A
6:50 AM55 °FFog.2 mph100%30.07 "Hg1 mi
6:20 AM54 °FFog.3 mph100%30.07 "Hg1 mi
5:50 AM54 °FFog.3 mph100%30.07 "Hg0 mi
5:20 AM54 °FFog.2 mph100%30.07 "Hg0 mi
4:50 AM54 °FFog.6 mph100%30.07 "Hg0 mi
4:20 AM54 °FFog.5 mph100%30.07 "Hg0 mi
3:50 AM54 °FFog.3 mph100%30.07 "Hg0 mi
3:20 AM54 °FFog.5 mph100%30.07 "Hg0 mi
2:50 AM54 °FFog.5 mph100%30.07 "Hg0 mi
2:20 AM54 °FFog.3 mph100%30.07 "Hg0 mi
1:50 AM55 °FFog.5 mph94%30.07 "Hg0 mi
1:20 AM55 °FFog.3 mph100%30.07 "Hg0 mi
12:50 AM55 °FFog.5 mph94%30.07 "Hg0 mi
12:20 AM54 °FFog.5 mph100%30.09 "Hg1 mi
11:50 PM
Fri, Jul 22
55 °FFog.7 mph94%30.07 "Hg0 mi
11:20 PM55 °FFog.8 mph100%30.07 "Hg0 mi
10:50 PM55 °FFog.8 mph100%30.07 "Hg1 mi
10:20 PM55 °FFog.8 mph100%30.07 "Hg0 mi
9:50 PM55 °FFog.10 mph100%30.07 "Hg0 mi
9:20 PM55 °FFog.13 mph100%30.07 "Hg0 mi
Weather by CustomWeather, © 2016

See weather overviewHow to use our weather pages